Main page
Satellite images Climate Cyclones Lightning AirportsFAQ Languages Contact Newsletter About
Weather : Europe Africa North America South America Asia Australia-Oceania Others

nanning-cn, Nanning, Nanning Wuxu International Airport

59431

latitude: , longitude: China, elevation: 22-49N m


METAR: ZGNN 212300Z 23002MPS 2000 BR SCT003 25/24 Q1001 BECMG TL0040 4000 BR